EXPRESS-AM7

Last updated on Nov. 18, 2019, 4:21 a.m. UTC

1 40505U 15012A   19320.93254042  .00000159  00000-0  00000-0 0  9992
2 40505   0.0004 241.2465 0002709 351.5816 198.6342  1.00274297 17251
UTC
Height (km)
Latitude
Longitude
Inclination
Orbital Period
UTC large
Height (km)
Speed (km/s)
/
Latitude / Longitude
Inclination (degrees)
Orbital Period (minutes)
Azimuth
Elevation
Range (km)
Doppler Factor
iOS Compass Heading
iOS Angle

Next 30 passes for location: Hong Kong

Rise time Rise Azimuth (degrees) Set time Set Azimuth (degrees) Duration Max altitude (degrees)

No matching passes for this satellites